This demonstration page uses our WeatherBlox Daily Observations layout. Learn more.

Left ArrowRight Arrow

Hourly Observations for March 11, 2020

Temp ( °F °C ) Dew Point ( °F °C ) Humidity (%) Winds ( mph kmh ) Pressure ( in mb ) Visibility ( mi km ) Precip ( " mm )
12:53 am 00:53 Clear 37 2.8 25 -3.9 62 62 SW 14 22 29.77 1008 10 16 N/A
1:53 am 01:53 Clear 37 2.8 25 -3.9 62 62 SW 17 28 29.77 1008 10 16 N/A
2:53 am 02:53 Cloudy 40 4.4 24 -4.4 53 53 WSW 15 24 29.76 1008 10 16 N/A
3:53 am 03:53 Mostly Cloudy 39 3.9 24 -4.4 55 55 SW 12 19 29.75 1007 10 16 N/A
4:53 am 04:53 Clear 37 2.8 25 -3.9 62 62 SW 8 13 29.75 1007 10 16 N/A
5:53 am 05:53 Mostly Cloudy 41 5 24 -4.4 51 51 SW 3 6 29.72 1007 10 16 N/A
6:53 am 06:53 Partly Cloudy 38 3.3 26 -3.3 62 62 SSW 7 11 29.73 1007 10 16 N/A
7:53 am 07:53 Cloudy 40 4.4 27 -2.8 60 60 W 10 17 29.71 1006 10 16 N/A
8:53 am 08:53 Cloudy 40 4.4 27 -2.8 60 60 SSW 8 13 29.71 1006 10 16 N/A
9:53 am 09:53 Cloudy 42 5.6 28 -2.2 58 58 WSW 6 9 29.70 1006 10 16 N/A
10:53 am 10:53 Cloudy 44 6.7 29 -1.7 55 55 SW 8 13 29.69 1005 10 16 N/A
11:53 am 11:53 Cloudy 49 9.4 31 -0.6 50 50 W 21 33 29.66 1005 10 16 N/A
12:53 pm 12:53 Cloudy 47 8.3 29 -1.7 50 50 NNW 23 37 29.67 1005 10 16 N/A
1:03 pm 13:03 Cloudy with Light Rain 42 5.6 32 undefined 68 68 N 24 39 29.67 1005 10 16 0.00 0.00
1:53 pm 13:53 Cloudy with Light Rain 41 5 31 -0.6 67 67 NW 12 19 29.70 1006 10 16 0.00 0.00
2:53 pm 14:53 Cloudy 43 6.1 28 -2.2 56 56 NW 23 37 29.72 1006 10 16 0.00 0.00
3:53 pm 15:53 Cloudy 40 4.4 26 -3.3 58 58 NNW 21 33 29.78 1009 10 16 N/A
4:53 pm 16:53 Partly Cloudy 37 2.8 23 -5 57 57 NNW 20 31 29.83 1010 10 16 N/A
5:53 pm 17:53 Cloudy 37 2.8 19 -7.2 48 48 N 12 19 29.85 1011 10 16 N/A
6:53 pm 18:53 Cloudy 36 2.2 19 -7.2 50 50 NNW 6 9 29.88 1012 10 16 N/A
7:53 pm 19:53 Mostly Cloudy 34 1.1 19 -7.2 54 54 NW 9 15 29.92 1013 10 16 N/A
8:53 pm 20:53 Clear 34 1.1 20 -6.7 56 56 NNW 13 20 29.95 1014 10 16 N/A
9:53 pm 21:53 Mostly Clear 34 1.1 21 -6.1 59 59 NNW 13 20 29.98 1015 10 16 N/A
10:53 pm 22:53 Clear 30 -1.1 22 -5.6 72 72 W 8 13 30.03 1017 10 16 N/A
11:53 pm 23:53 Clear 25 -3.9 20 -6.7 81 81 W 9 15 30.05 1018 10 16 N/A

Powered by AerisWeather